Location: Cranbrook Institute of Science
(42.5830°N, 83.2450°W)
Time: 16:19:28
(UTC-04:00)

Daily predictions for brighter satellites

Satellite Brightness Start Highest point End
(mag) Time Altitude Azimuth Time Altitude Azimuth Time Altitude Azimuth
Cosmos 1655 Rocket 4.3 20:46:11 10° SSE 20:52:07 47° E 20:58:07 10° NNE
Cosmos 2227 Rocket 4.3 20:47:47 10° NW 20:52:35 29° WSW 20:57:20 10° SSW
Cosmos 1633 2.7 20:54:38 10° S 20:58:07 51° E 21:01:41 10° NNE
Cosmos 1980 Rocket 2.2 20:54:16 10° SSW 20:59:52 79° ESE 21:05:29 10° NNE
Abrixas rocket 3.3 20:56:54 10° W 21:00:03 44° NNW 21:03:14 10° ENE
Cosmos 839 Rocket 4.2 20:54:05 10° S 21:00:09 51° ESE 21:06:09 10° NE
YAOGAN 6 4.1 20:58:21 10° ESE 21:01:02 20° ENE 21:03:41 10° NNE
ATLAS 2AS CENTAUR R/B 4.0 20:56:46 10° SSE 21:02:27 23° ESE 21:08:21 10° ENE
Cosmos 1452 Rocket 3.7 20:58:54 10° S 21:04:00 53° ESE 21:09:09 10° NNE
USA 186 1.8 21:03:08 10° SSE 21:06:28 70° ENE 21:09:51 10° N
CZ-2D R/B 3.4 21:03:22 10° S 21:07:14 77° WSW 21:11:07 10° NNW
Cosmos 1420 Rocket 4.4 21:03:34 10° S 21:08:20 39° ESE 21:13:09 10° NE
NOSS 3-1 (A) 3.5 21:03:00 10° SW 21:08:46 85° NW 21:15:19 10° NE
Cosmos 407 Rocket 3.9 21:04:08 10° NNW 21:09:28 70° WSW 21:14:44 10° S
Atlas Centaur 2 3.8 21:05:47 10° WSW 21:12:46 32° S 21:18:37 11° ESE
Okean 2 Rocket 3.2 21:09:24 10° S 21:13:53 87° W 21:18:26 10° N
Helios 1A 3.9 21:12:00 10° SE 21:15:46 32° ENE 21:19:33 10° N
Cosmos 1697 Rocket 3.9 21:10:31 10° SW 21:15:54 47° WNW 21:21:22 10° NNE
Cosmos 44 Rocket 3.2 21:11:17 10° NNW 21:16:03 89° NE 21:20:52 10° SSE
Cosmos 676 Rocket 4.3 21:23:15 10° NNW 21:28:33 71° WSW 21:33:51 10° S
Resurs 1-3 4.3 21:26:13 10° S 21:30:31 55° W 21:34:52 10° NNW
Cosmos 2227 4.3 21:25:04 10° NNW 21:30:43 80° WSW 21:36:22 10° SSE
BREEZE-M DEB (TANK) 1.3 21:26:55 10° SW 21:30:45 76° SSE 21:32:42 11° ENE
DELTA 2 R/B (1) 4.2 21:27:50 10° W 21:33:11 46° SSW 21:37:20 16° SE
SeaSat 1 2.5 21:31:55 10° NNE 21:36:53 87° WNW 21:41:48 10° SSW
Meteor 1-11 Rocket 3.8 21:34:18 10° S 21:40:06 69° E 21:45:49 10° NNE
Spot 2 Rocket 4.4 21:37:49 10° S 21:42:46 49° W 21:47:43 10° NNW
Cosmos 1140 Rocket 3.7 21:39:28 10° NNW 21:44:43 73° WSW 21:49:55 10° S
Cosmos 1602 4.1 21:41:57 10° SSW 21:45:45 66° W 21:49:35 10° N
NOSS 2-3 (C) 4.0 21:41:58 10° SSW 21:46:26 48° ESE 21:51:34 10° NE
SPOT 5 4.1 21:46:37 19° ESE 21:48:43 25° ENE 21:52:30 10° NNE
Cosmos 614 Rocket 4.1 21:47:38 10° NNW 21:52:45 72° WSW 21:57:21 13° S
S3M 4.2 21:47:25 10° N 21:53:41 76° W 21:59:59 10° S
SAR-Lupe-4 4.1 21:52:25 28° ESE 21:53:47 42° ENE 21:57:12 10° N
Lacrosse 5 2.5 21:49:24 10° S 21:53:53 32° SE 21:58:23 10° ENE
Cosmos 1553 Rocket 4.3 21:50:39 10° NNW 21:56:46 66° W 22:02:45 10° S
Meteor 1-29 3.0 21:55:50 10° NNE 21:59:12 53° E 22:00:43 28° SSE
Resurs 01 Rocket 3.7 21:55:37 10° SSW 21:59:19 26° W 22:03:02 10° NW
Cosmos 2315 Rocket 4.3 21:53:57 10° N 22:00:00 49° ENE 22:03:43 23° SE
ERBS 4.0 21:56:52 10° WSW 22:00:07 36° NW 22:03:22 10° NNE
GENESIS II 4.3 21:57:04 10° NW 22:00:59 73° WSW 22:02:55 28° SSE
Cosmos 1939 Rocket 3.7 21:57:40 10° S 22:01:33 48° W 22:05:23 10° NNW
Okean 1 Rocket 3.1 21:58:31 18° SSE 22:01:36 56° E 22:05:54 10° NNE
H-2A R/B 3.1 22:00:55 23° E 22:02:45 28° ENE 22:06:59 10° N
Okean 1-7 Rocket 4.1 21:58:56 10° N 22:03:10 40° ENE 22:04:41 30° ESE
Cosmos 44 4.4 21:59:14 10° NW 22:03:16 35° WSW 22:06:53 13° S
Cosmos 2266 Rocket 3.8 21:58:23 10° S 22:04:24 78° E 22:10:27 10° N
Cosmos 1741 Rocket 4.0 21:59:31 10° NNW 22:04:47 90° WSW 22:08:13 22° SSE
Cosmos 1607 4.1 21:58:41 10° NNW 22:05:07 64° NE 22:08:51 26° SE
Meteor 1-23 Rocket 4.1 22:01:22 10° N 22:06:57 73° E 22:10:35 22° SSE
ARGOS 3.5 22:04:28 27° SE 22:07:05 48° ENE 22:12:13 10° N
Cosmos 2322 Rocket 2.2 22:02:13 10° SSW 22:07:56 85° WNW 22:13:41 10° NNE
Cosmos 1300 Rocket 3.5 22:04:09 10° S 22:08:26 80° W 22:12:47 10° N
Cosmos 2263 Rocket 2.2 22:02:57 10° NNW 22:08:41 79° ENE 22:11:55 27° SSE
ERS-1 Rocket 2.9 22:06:15 25° SSE 22:09:08 68° ENE 22:14:07 10° N
Tiangong 1 0.5 22:07:47 10° W 22:10:33 82° S 22:10:33 82° S
SAR-Lupe-1 4.1 22:09:58 43° SE 22:10:49 57° ENE 22:14:21 10° N
Cosmos 1536 3.0 22:06:51 10° SSW 22:10:55 76° W 22:15:00 10° N
Envisat 4.5 22:07:17 10° SSW 22:11:53 34° W 22:16:31 10° NNW
Helios 1B rocket 2.5 22:09:21 10° N 22:13:27 79° WNW 22:17:33 10° SSW
Lacrosse 5 rocket 2.8 22:11:01 10° WNW 22:14:08 25° SW 22:15:50 19° SSW
Cosmos 1844 Rocket 4.1 22:12:14 10° N 22:16:45 23° NE 22:18:48 19° E
SL-16 R/B 2.5 22:12:18 10° SSW 22:17:56 71° WNW 22:23:38 10° NNE
Cosmos 1025 Rocket 3.0 22:13:57 10° N 22:18:11 61° E 22:19:21 43° SE
CZ-4B DEB 3.0 22:18:26 46° SW 22:18:58 56° W 22:21:49 10° NNW
ATLAS 3B R/B 3.1 22:14:10 10° NNW 22:20:45 49° NE 22:23:52 29° ESE
Cosmos 1515 4.0 22:19:09 10° N 22:22:50 45° ENE 22:22:57 45° E
Cosmos 220 Rocket 3.9 22:19:49 10° NNW 22:24:07 77° ENE 22:25:17 47° SE
NOSS 2-3 (D) 3.9 22:21:24 10° SW 22:26:05 84° NW 22:31:36 10° NE
Cosmos 2322 3.9 22:24:05 32° SSE 22:26:09 45° ESE 22:31:32 10° NE
BREEZE-M DEB 4.3 22:17:55 10° WNW 22:27:17 46° N 22:29:12 24° ENE
USA 245 3.9 22:27:23 39° SE 22:29:16 66° ENE 22:33:46 10° N
Cosmos 2219 Rocket 4.3 22:32:43 12° ENE 22:32:43 12° ENE 22:33:18 10° ENE
H-2A R/B 4.3 22:33:11 12° ENE 22:33:11 12° ENE 22:34:54 10° NE
COSMOS 2428 3.8 22:35:04 27° E 22:35:04 27° E 22:38:47 10° NE
Abrixas rocket 3.9 22:34:20 10° WNW 22:37:14 28° N 22:38:08 24° NNE
Cosmos 1500 3.6 22:40:19 49° NE 22:40:19 49° NE 22:43:29 10° NNE
Cosmos 1110 Rocket 3.8 22:37:25 25° SSW 22:40:28 79° ESE 22:45:40 10° NNE
Cosmos 1932 4.5 22:34:01 10° NW 22:40:34 86° WSW 22:43:03 40° SSE
Cosmos 2360 Rocket 2.0 22:37:59 16° SSW 22:42:36 76° ESE 22:48:14 10° NNE
MetOp-B 4.3 22:40:46 33° S 22:43:12 72° WSW 22:48:35 10° NNW
Terra 2.8 22:45:43 31° ENE 22:45:46 31° ENE 22:49:58 10° N
Cosmos 2333 Rocket 4.3 22:50:50 12° ENE 22:50:50 12° ENE 22:51:36 10° ENE
SL-08 RB Rocket 3.7 22:51:30 61° S 22:52:16 82° WSW 22:56:51 10° NNW
ATLAS 2AS CENTAUR R/B 3.1 22:44:48 10° SW 22:52:32 83° NW 23:00:45 10° NE
Okean 2 3.7 22:49:43 10° NNW 22:53:45 60° W 22:54:15 55° SW
Cosmos 1892 Rocket 3.5 22:50:15 10° N 22:54:33 67° ENE 22:54:33 67° ENE
Cosmos 1331 Rocket 3.9 22:54:05 33° SSW 22:56:30 85° WNW 23:01:45 10° NNE
SL-8 R/B 4.1 22:52:22 10° WNW 22:57:06 56° NNE 22:58:02 47° ENE
Atlas Centaur 2 3.8 22:55:28 10° WSW 23:01:14 25° SSW 23:01:14 25° SSW
SPOT 1/Viking Rocket 3.5 23:02:52 63° S 23:03:45 87° WSW 23:09:00 10° NNW
Cosmos 1544 Rocket 3.8 23:11:40 62° NNE 23:11:40 62° NNE 23:15:27 10° N
Cosmos 1238 Rocket 4.1 23:05:03 10° N 23:11:51 82° W 23:13:45 49° S
Cosmos 2237 Rocket 4.4 23:15:20 12° ENE 23:15:20 12° ENE 23:15:56 10° ENE
Aureole 3 Rocket 4.5 23:10:13 10° N 23:19:09 78° W 23:21:30 46° S
Cosmos 1066 Rocket 4.0 23:14:05 10° NNW 23:19:30 80° W 23:20:01 71° SSW
BREEZE-M DEB (TANK) 4.4 23:16:29 10° W 23:20:46 60° N 23:37:53 10° ENE
Nadezhda 1 Rocket 3.9 23:16:34 10° N 23:22:52 71° E 23:23:30 66° ESE
Meteor 1-21 4.5 23:17:32 10° N 23:22:49 52° ENE 23:22:49 52° ENE
Cosmos 1455 Rocket 3.6 23:24:43 56° N 23:24:43 56° N 23:28:17 10° N
Cosmos 1975 3.8 23:26:36 44° NW 23:26:36 44° NW 23:29:41 10° N
SPOT 5 3.8 23:25:52 37° WSW 23:26:35 39° W 23:31:02 10° NNW
Meteor 1-12 Rocket 4.3 23:27:59 63° SW 23:28:48 75° W 23:34:28 10° N
Cosmos 1503 Rocket 4.4 23:23:48 10° NNW 23:28:45 56° NE 23:28:45 56° NE
Lacrosse 5 2.7 23:31:48 10° WSW 23:36:43 49° NW 23:41:38 10° NE
Cosmos 1709 Rocket 4.4 23:40:17 47° ENE 23:40:17 47° ENE 23:45:26 10° NNE
H-2A R/B 3.1 23:41:34 34° WSW 23:42:02 35° W 23:46:38 10° NNW
NOSS 3-2 (A) 3.9 23:41:36 10° NW 23:49:08 81° NE 23:50:24 66° ESE
USA 238 DEB 3.9 23:42:12 10° NW 23:49:10 60° WSW 23:49:51 57° SW
USA 238 3.9 23:42:18 10° NW 23:49:16 60° WSW 23:49:57 58° SW
Cosmos 2278 Rocket 2.8 23:44:33 10° NNW 23:49:36 45° NE 23:49:36 45° NE
Cosmos 2263 Rocket 4.4 23:48:51 10° WNW 23:51:51 15° W 23:53:38 13° WSW
